[[{"header":{"parameterUnit":"m.s-1","parameterCategory":1,"la1":30.2991,"la2":30.254,"lo1":-89.0895,"lo2":-89.0444,"dy":0.0017,"dx":0.0017,"nx":28,"ny":28,"refTime":"2025-03-27T03:00:00:Z","depth":0,"parameterNumber":2,"parameterNumberName":"U-component_of_WINDS"},"data":[0,0,0,0,0,0,0,0,0,0,0,0,0,0,0,0,0,0,0,0,0,0,0,0,0,0,0,0,0,0,0,0,0,0,0,0,0,0,0,0,0,0,0,0,0,0,0,0,0,0,0,0,0,0,0,0,0,0,-3.7856,-3.7857,0,-3.7925,-3.7926,-3.7927,-3.792,-3.7919,-3.7918,-3.7917,-3.7989,-3.7991,-3.7994,0,0,0,0,0,0,0,0,0,0,0,0,0,-3.7722,-3.7724,-3.7856,-3.7857,-3.7858,-3.7925,-3.7926,-3.7927,-3.7921,-3.7919,-3.7918,-3.7917,-3.7988,-3.7991,-3.7995,0,0,0,0,0,0,0,0,0,0,0,0,0,-3.7784,-3.7725,-3.7856,-3.7863,-3.7864,-3.7925,-3.7926,-3.7927,-3.7921,-3.7919,-3.7918,-3.7916,-3.7987,-3.7991,-3.7995,-3.8053,0,0,-3.8008,-3.801,0,0,0,0,0,0,0,0,-3.7781,-3.7789,-3.7861,-3.7863,-3.7864,-3.7913,-3.7904,-3.7969,-3.7921,-3.7899,-3.7917,-3.7915,-3.7965,-3.7971,-3.7987,-3.8057,-3.806,-3.8009,-3.8011,-3.8013,-3.8014,0,0,0,0,0,0,0,-3.7776,-3.7786,-3.7884,-3.7862,-3.7864,-3.7863,-3.787,-3.7917,-3.794,-3.7901,-3.7901,-3.7909,-3.7965,-3.7983,-3.7989,-3.8061,-3.8008,-3.8012,-3.8015,-3.8017,-3.8182,-3.8184,0,0,0,0,0,0,-3.777,-3.7783,-3.7881,-3.7886,-3.7818,-3.7867,-3.7875,-3.7899,-3.794,-3.7944,-3.791,-3.7909,-3.7976,-3.7984,-3.7991,-3.8062,-3.8013,-3.8017,-3.802,-3.818,-3.8183,-3.8184,0,0,0,0,0,0,-3.7767,-3.7779,-3.7879,-3.7834,-3.7847,-3.7871,-3.7898,-3.7901,-3.7918,-3.7946,-3.7951,-3.7924,-3.7975,-3.7985,-3.8038,-3.8064,-3.8019,-3.8023,-3.8178,-3.8181,-3.8183,-3.8204,0,0,0,0,0,0,-3.7763,-3.7778,-3.78,-3.7835,-3.7849,-3.7924,-3.7899,-3.7903,-3.7926,-3.7924,-3.796,-3.7965,-3.7975,-3.8031,-3.8042,-3.8069,-3.8026,-3.8176,-3.8179,-3.8183,-3.8201,-3.8207,-3.8212,0,0,0,0,0,-3.7759,-3.7803,-3.7801,-3.7813,-3.7877,-3.7925,-3.7934,-3.7944,-3.7928,-3.795,-3.7969,-3.7964,-3.806,-3.8037,-3.8049,-3.8078,-3.8174,-3.8178,-3.8182,-3.8198,-3.8205,-3.8212,0,0,0,0,0,0,-3.7771,-3.7808,-3.7806,-3.7863,-3.7891,-3.7924,-3.7952,-3.7951,-3.7985,-3.7981,-3.7993,-3.8002,-3.8055,-3.8072,-3.8045,-3.8137,-3.8115,-3.8122,-3.8123,-3.813,-3.8136,-3.813,-3.803,0,0,0,0,0,-3.778,-3.7816,-3.7847,-3.7894,-3.7908,-3.7928,-3.7949,-3.7955,-3.7985,-3.7997,-3.8019,-3.8048,-3.8085,-3.8109,-3.8144,-3.8204,-3.8211,-3.823,-3.8235,-3.824,-3.8245,-3.8277,-3.8286,-3.8198,-3.8198,-3.8198,0,0,-3.78,-3.7825,-3.7846,-3.7897,-3.7919,-3.7956,-3.7938,-3.7978,-3.8006,-3.8003,-3.8053,-3.8071,-3.8105,-3.8161,-3.8187,-3.8177,-3.8271,-3.8245,-3.8248,-3.8251,-3.8282,-3.8291,-3.8298,-3.8201,-3.82,-3.82,0,0,-3.7854,-3.7877,-3.7918,-3.7941,-3.7976,-3.7989,-3.7999,-3.8033,-3.8044,-3.8095,-3.8094,-3.8128,-3.8191,-3.8215,-3.8235,-3.83,-3.8297,-3.8312,-3.834,-3.8371,-3.8378,-3.8385,-3.8407,-3.8415,-3.8317,-3.8317,-3.8317,0,-3.7874,-3.7929,-3.794,-3.798,-3.8003,-3.8002,-3.8045,-3.8067,-3.8111,-3.8126,-3.8115,-3.8194,-3.8217,-3.8279,-3.8295,-3.8312,-3.8324,-3.8306,-3.8376,-3.8383,-3.8389,-3.841,-3.8419,-3.8318,-3.8318,-3.8318,-3.8318,0,-3.7952,-3.7991,-3.802,-3.8063,-3.8089,-3.813,-3.8147,-3.8172,-3.8176,-3.8191,-3.8243,-3.8271,-3.8312,-3.8327,-3.8331,-3.839,-3.8383,-3.8374,-3.8352,-3.8398,-3.8419,-3.8427,-3.8321,-3.832,-3.832,-3.8319,0,0,-3.8015,-3.8063,-3.8073,-3.8092,-3.8131,-3.8161,-3.8203,-3.8243,-3.8264,-3.8295,-3.833,-3.8384,-3.8376,-3.84,-3.8407,-3.8435,-3.8484,-3.8423,-3.8424,-3.8432,-3.8549,-3.8554,-3.8564,-3.8482,-3.8484,-3.8485,-3.8546,0,-3.8072,-3.8144,-3.8156,-3.822,-3.8255,-3.8256,-3.8293,-3.832,-3.8336,-3.8369,-3.8386,-3.8423,-3.8411,-3.8425,-3.8453,-3.8472,-3.8507,-3.8468,-3.8515,-3.8516,-3.8504,-3.8574,-3.858,-3.8636,-3.8554,-3.8555,-3.8556,0,-3.8148,-3.818,-3.8248,-3.8281,-3.8297,-3.8329,-3.8367,-3.8398,-3.843,-3.8439,-3.8466,-3.847,-3.8514,-3.8492,-3.8552,-3.8525,-3.8545,-3.8558,-3.856,-3.8564,-3.8538,-3.8578,-3.8654,-3.8661,-3.8569,-3.8568,-3.8567,0,-3.8185,-3.8246,-3.8294,-3.8311,-3.8352,-3.8374,-3.8392,-3.8423,-3.8446,-3.848,-3.8495,-3.8533,-3.8554,-3.8584,-3.8598,-3.8581,-3.8657,-3.8637,-3.8666,-3.8666,-3.8681,-3.8679,-3.8759,-3.8696,-3.8696,-3.8696,-3.8696,0,-3.8247,-3.8288,-3.8311,-3.8341,-3.8387,-3.8401,-3.8446,-3.8464,-3.8491,-3.8524,-3.8528,-3.856,-3.8578,-3.8612,-3.8624,-3.8672,-3.8682,-3.869,-3.8692,-3.8689,-3.8687,-3.8701,-3.8697,-3.8698,-3.8698,-3.8697,-3.8697,0,-3.8295,-3.8313,-3.8365,-3.84,-3.841,-3.8442,-3.8472,-3.8501,-3.8517,-3.8559,-3.857,-3.8594,-3.8635,-3.8653,-3.8703,-3.8711,-3.8765,-3.8766,-3.8754,-3.8754,-3.8782,-3.8779,-3.8872,-3.8885,-3.8815,-3.8816,-3.8816,0,-3.8333,-3.8364,-3.8402,-3.8425,-3.8443,-3.8479,-3.8503,-3.8518,-3.8543,-3.8582,-3.8606,-3.8647,-3.868,-3.8745,-3.8767,-3.8806,-3.8806,-3.8837,-3.8812,-3.8808,-3.8806,-3.8803,-3.8806,-3.884,-3.8841,-3.8842,-3.8842,0,-3.8397,-3.8404,-3.8438,-3.8475,-3.8504,-3.8534,-3.8563,-3.8582,-3.8602,-3.8629,-3.8671,-3.8696,-3.8747,-3.8788,-3.8828,-3.8847,-3.8848,-3.885,-3.8859,-3.8854,-3.8846,-3.885,-3.8765,-3.8847,-3.8847,-3.8846,-3.8846,-3.8846,-3.8441,-3.8468,-3.8499,-3.8537,-3.8561,-3.8589,-3.8617,-3.8637,-3.8671,-3.8714,-3.8721,-3.8765,-3.8797,-3.8851,-3.8872,-3.8906,-3.8899,-3.8912,-3.8915,-3.8917,-3.8918,-3.8842,-3.8914,-3.8914,-3.8914,-3.8914,-3.8914,0,-3.8504,-3.8524,-3.8559,-3.86,-3.863,-3.8628,-3.8661,-3.8686,-3.8725,-3.8754,-3.8787,-3.8834,-3.8874,-3.89,-3.894,-3.8962,-3.8964,-3.8972,-3.897,-3.8974,-3.8923,-3.8911,-3.897,-3.897,-3.897,-3.897,-3.897,-3.897,-3.854,-3.8587,-3.8599,-3.8658,-3.8678,-3.872,-3.8739,-3.8765,-3.8788,-3.8841,-3.8874,-3.889,-3.8919,-3.8961,-3.8997,-3.9004,-3.9018,-3.9026,-3.9033,-3.8984,-3.8978,-3.8972,-3.8961,-3.903,-3.903,-3.9081,-3.9081,-3.9082]},{"header":{"parameterUnit":"m.s-1","parameterCategory":1,"la1":30.2991,"la2":30.254,"lo1":-89.0895,"lo2":-89.0444,"dy":0.0017,"dx":0.0017,"nx":28,"ny":28,"refTime":"2025-03-27T03:00:00:Z","depth":0,"parameterNumber":3,"parameterNumberName":"V-component_of_WINDS"},"data":[0,0,0,0,0,0,0,0,0,0,0,0,0,0,0,0,0,0,0,0,0,0,0,0,0,0,0,0,0,0,0,0,0,0,0,0,0,0,0,0,0,0,0,0,0,0,0,0,0,0,0,0,0,0,0,0,0,0,3.1396,3.1396,0,3.1487,3.1488,3.1489,3.1515,3.1514,3.1514,3.1513,3.1606,3.1609,3.1612,0,0,0,0,0,0,0,0,0,0,0,0,0,3.1244,3.1246,3.1395,3.1397,3.1398,3.1487,3.1488,3.1489,3.1515,3.1514,3.1514,3.1513,3.1605,3.1609,3.1612,0,0,0,0,0,0,0,0,0,0,0,0,0,3.132,3.1247,3.1395,3.1421,3.1425,3.1487,3.1488,3.149,3.1515,3.1514,3.1514,3.1513,3.1604,3.1609,3.1613,3.1655,0,0,3.1626,3.1628,0,0,0,0,0,0,0,0,3.1315,3.1325,3.1416,3.142,3.1423,3.1489,3.1469,3.1545,3.1515,3.1481,3.1513,3.1513,3.1568,3.1575,3.1594,3.166,3.1664,3.1627,3.1629,3.1631,3.1633,0,0,0,0,0,0,0,3.131,3.1322,3.1432,3.1418,3.1422,3.1429,3.1439,3.1483,3.1527,3.1484,3.1486,3.1496,3.157,3.159,3.1596,3.1665,3.1627,3.1631,3.1633,3.1635,3.1772,3.1773,0,0,0,0,0,0,3.13,3.1317,3.1429,3.1434,3.1366,3.1432,3.1443,3.1469,3.1527,3.1535,3.1497,3.1497,3.1583,3.1591,3.16,3.1655,3.1631,3.1635,3.1638,3.1771,3.1773,3.1774,0,0,0,0,0,0,3.1297,3.131,3.1425,3.1376,3.1391,3.1435,3.1464,3.1471,3.1491,3.1537,3.1545,3.1509,3.1582,3.1594,3.1642,3.1659,3.1637,3.1642,3.177,3.1772,3.1773,3.1765,0,0,0,0,0,0,3.1293,3.1309,3.1325,3.1377,3.1394,3.1466,3.1465,3.1473,3.1499,3.15,3.1551,3.1558,3.1583,3.1635,3.1646,3.1664,3.1645,3.1769,3.1771,3.1773,3.1764,3.1766,3.1768,0,0,0,0,0,3.1287,3.1319,3.1326,3.1339,3.1415,3.1466,3.1476,3.1504,3.15,3.1517,3.1547,3.1557,3.1655,3.164,3.1653,3.1672,3.1768,3.177,3.1773,3.1763,3.1766,3.1768,0,0,0,0,0,0,3.1267,3.1326,3.1334,3.1383,3.142,3.1471,3.1493,3.1505,3.1543,3.1543,3.1575,3.1586,3.1633,3.1657,3.164,3.1717,3.1712,3.1717,3.17,3.1703,3.1705,3.1699,3.1649,0,0,0,0,0,3.1269,3.1305,3.1354,3.1393,3.1411,3.1449,3.1472,3.149,3.1529,3.1544,3.1578,3.1615,3.1655,3.168,3.1718,3.1767,3.178,3.1787,3.1789,3.179,3.1795,3.1824,3.1829,3.1781,3.1781,3.1781,0,0,3.1272,3.1308,3.1329,3.139,3.142,3.1458,3.1462,3.1501,3.1529,3.155,3.1599,3.1624,3.1668,3.1718,3.1741,3.1739,3.181,3.1793,3.1794,3.1798,3.1827,3.1832,3.1836,3.1783,3.1782,3.1782,0,0,3.1298,3.1328,3.1365,3.1396,3.1442,3.1467,3.1476,3.1525,3.1543,3.1592,3.161,3.1644,3.171,3.1742,3.1766,3.1805,3.1817,3.1817,3.1827,3.1856,3.1859,3.1863,3.1879,3.1884,3.182,3.182,3.182,0,3.1296,3.1354,3.1382,3.1421,3.1448,3.1469,3.1507,3.1535,3.1591,3.161,3.1607,3.1692,3.1723,3.1781,3.1791,3.1809,3.1821,3.1812,3.1857,3.186,3.1864,3.188,3.1885,3.182,3.182,3.182,3.182,0,3.1351,3.139,3.1414,3.1469,3.1498,3.1536,3.1571,3.1597,3.1613,3.1638,3.1689,3.1727,3.1774,3.1789,3.1804,3.185,3.1848,3.185,3.1845,3.1868,3.1883,3.1889,3.182,3.182,3.182,3.182,0,0,3.1367,3.1438,3.1446,3.1472,3.1525,3.1557,3.1596,3.1643,3.1666,3.1704,3.1739,3.1795,3.1799,3.1827,3.1845,3.187,3.1901,3.187,3.1872,3.1876,3.1956,3.1955,3.1962,3.1908,3.191,3.1911,3.1953,0,3.1401,3.1473,3.15,3.1559,3.1597,3.1618,3.1653,3.1689,3.1714,3.175,3.1778,3.1819,3.1819,3.1836,3.1861,3.1892,3.1918,3.1889,3.1942,3.1944,3.1933,3.1969,3.1968,3.2007,3.1959,3.196,3.1961,0,3.145,3.149,3.1553,3.1603,3.162,3.1651,3.1697,3.1731,3.1773,3.179,3.1822,3.1839,3.1882,3.1874,3.1934,3.1914,3.1937,3.1956,3.1958,3.1965,3.1955,3.198,3.202,3.2026,3.197,3.1969,3.1969,0,3.1459,3.1528,3.1575,3.1596,3.1655,3.1677,3.1702,3.1743,3.1771,3.1811,3.1829,3.1873,3.1898,3.1932,3.1962,3.1952,3.202,3.2014,3.2037,3.2036,3.2051,3.205,3.2097,3.2063,3.2063,3.2063,3.2062,0,3.1495,3.1533,3.158,3.1609,3.1653,3.1684,3.1726,3.1753,3.179,3.1826,3.1845,3.1878,3.1914,3.1952,3.1975,3.2023,3.2033,3.2049,3.2055,3.2048,3.2046,3.2065,3.2064,3.2064,3.2064,3.2064,3.2063,0,3.1512,3.1545,3.1598,3.165,3.1664,3.1694,3.1738,3.1768,3.1794,3.1839,3.1851,3.1892,3.1938,3.197,3.2028,3.2044,3.2096,3.21,3.2082,3.2085,3.2107,3.2106,3.217,3.2181,3.2137,3.2137,3.2137,0,3.1534,3.1565,3.162,3.1645,3.1671,3.1711,3.1739,3.1771,3.1799,3.185,3.1874,3.1921,3.1961,3.2032,3.2068,3.2113,3.212,3.2139,3.2127,3.212,3.2123,3.2122,3.2126,3.2142,3.2142,3.2142,3.2142,0,3.1571,3.1586,3.1625,3.1672,3.1705,3.1742,3.178,3.18,3.1838,3.1869,3.1917,3.1947,3.2007,3.2054,3.2103,3.213,3.2143,3.2146,3.2154,3.2149,3.2138,3.2146,3.2089,3.2145,3.2144,3.2144,3.2144,3.2144,3.1593,3.1621,3.1665,3.1709,3.1741,3.1776,3.1807,3.1838,3.1878,3.193,3.1946,3.1995,3.2038,3.2105,3.2132,3.2172,3.2171,3.2182,3.2185,3.2188,3.2189,3.213,3.218,3.218,3.218,3.218,3.218,0,3.1632,3.1661,3.1701,3.1755,3.179,3.1799,3.1842,3.1871,3.1914,3.1953,3.1992,3.2047,3.2093,3.2132,3.2179,3.2204,3.2211,3.2215,3.2215,3.2221,3.2186,3.2175,3.2209,3.2209,3.2209,3.2209,3.2209,3.2209,3.1657,3.1706,3.1726,3.1792,3.1822,3.1871,3.1895,3.1928,3.1959,3.202,3.2058,3.2084,3.2123,3.2174,3.2217,3.2227,3.2245,3.2248,3.226,3.2227,3.2223,3.222,3.2211,3.2251,3.2251,3.2293,3.2293,3.2293]}]]